Location: Ambrosina
(19.9365°S, 43.9833°W)
Time: 01:37:57
(UTC+00:00)

EPKM - Pass Details

Date: 11 May 2021
Orbit: 225 x 20615 km, 24.1° (Epoch: 20 June)

Event Time Altitude Azimuth Distance (km) Brightness Sun altitude
Rises 21:08:21 0° 286° (WNW) 5,329 10.2 -9.7°
Reaches altitude 10° 21:13:45 10° 286° (WNW) 2,710 7.9 -10.9°
Maximum altitude 21:18:41 85° 13° (NNE) 394 2.0 -12.0°
Enters shadow 21:19:49 25° 102° (ESE) 683 2.7 -12.3°
